This demonstration page uses our WeatherBlox Daily Observations layout. Learn more.

Left ArrowRight Arrow

41.86663, -103.66717

Hourly Observations for April 25, 2018

Temp ( °F °C ) Dew Point ( °F °C ) Humidity (%) Winds ( mph kmh ) Pressure ( in mb ) Visibility ( mi km ) Precip ( " mm )
12:53 am 00:53 Partly Cloudy 30 -1.1 28 -2.2 92 92 NNW 5 7 30.47 1032 10 16 N/A
1:53 am 01:53 Clear 28 -2.2 27 -2.8 96 96 NNE 5 7 30.45 1031 10 16 N/A
2:53 am 02:53 Clear 27 -2.8 26 -3.3 96 96 N N/A 30.44 1031 10 16 N/A
3:53 am 03:53 Clear 28 -2.2 26 -3.3 92 92 N N/A 30.42 1030 10 16 N/A
4:53 am 04:53 Clear 25 -3.9 24 -4.4 96 96 NNW 3 6 30.42 1030 10 16 N/A
5:53 am 05:53 Clear 23 -5 22 -5.6 96 96 NNW 5 7 30.42 1030 10 16 N/A
6:53 am 06:53 Sunny 28 -2.2 26 -3.3 92 92 N N/A 30.40 1029 10 16 N/A
7:53 am 07:53 Sunny 35 1.7 31 -0.6 85 85 N N/A 30.38 1029 10 16 N/A
8:53 am 08:53 Sunny 39 3.9 33 0.6 79 79 N N/A 30.36 1028 10 16 N/A
9:53 am 09:53 Sunny 44 6.7 33 0.6 65 65 SSW 5 7 30.33 1027 10 16 N/A
10:53 am 10:53 Sunny 50 10 32 undefined 50 50 ESE 3 6 30.28 1025 10 16 N/A
11:53 am 11:53 Sunny 54 12.2 31 -0.6 42 42 S 6 9 30.22 1023 10 16 N/A
12:53 pm 12:53 Sunny 58 14.4 30 -1.1 35 35 S 6 9 30.17 1022 10 16 N/A
1:53 pm 13:53 Sunny 63 17.2 26 -3.3 25 25 W 5 7 30.11 1020 10 16 N/A
2:53 pm 14:53 Sunny 67 19.4 26 -3.3 21 21 SSW 12 19 30.06 1018 10 16 N/A
3:53 pm 15:53 Sunny 68 20 23 -5 18 18 SSE 9 15 30.01 1016 10 16 N/A
4:53 pm 16:53 Sunny 70 21.1 24 -4.4 18 18 SE 8 13 29.97 1015 10 16 N/A
5:53 pm 17:53 Sunny 71 21.7 24 -4.4 17 17 S 8 13 29.94 1014 10 16 N/A
6:53 pm 18:53 Sunny 68 20 31 -0.6 25 25 ESE 10 17 29.91 1013 10 16 N/A
7:53 pm 19:53 Clear 56 13.3 35 1.7 46 46 SE 9 15 29.91 1013 10 16 N/A
8:53 pm 20:53 Clear 50 10 35 1.7 57 57 ESE 7 11 29.92 1013 10 16 N/A
9:53 pm 21:53 Clear 49 9.4 34 1.1 56 56 ESE 8 13 29.91 1013 10 16 N/A
10:53 pm 22:53 Clear 50 10 31 -0.6 48 48 VRB 3 6 29.87 1011 10 16 N/A
11:53 pm 23:53 Clear 52 11.1 33 0.6 49 49 WNW 10 17 29.88 1012 10 16 N/A

Powered by AerisWeather